Theta_e
319 320 320 319 319 322 323 324 325 327 330 331 332 332 331 330 331 334 335 336 340 343 345 347 345 346 346 344 349 351 351 351 350 349 349 348 348 348 348 348 348 349 350 351 351 351 351 351 350 350 350 350 350 349 348 347 344 342 341 339 337 335 335 335 332 330 330 331 333 334 335 335 336 338 340 340 340 341 341 343 346 346 347 348 347 345
319 319 319 319 320 322 325 327 328 328 328 328 329 330 330 330 331 333 335 334 338 341 342 346 345 345 345 344 347 351 350 350 350 350 349 348 348 348 348 348 348 349 349 350 350 351 351 351 351 351 351 350 350 350 349 349 347 344 343 341 338 337 335 335 332 330 330 331 331 333 334 334 334 337 339 340 339 339 340 342 344 346 347 348 347 344
320 319 319 319 322 326 328 329 329 328 328 328 327 326 326 328 329 331 333 333 335 339 341 346 346 345 345 345 347 350 350 350 350 350 349 349 349 348 348 348 348 348 348 349 349 350 351 351 351 351 352 351 351 351 350 350 348 347 345 343 341 339 336 334 333 331 330 331 331 332 333 333 334 335 337 339 340 340 340 341 343 345 348 349 347 343
321 322 320 321 325 329 328 329 328 328 327 327 326 324 324 326 327 328 332 333 334 338 341 345 344 344 346 346 349 350 350 350 350 350 349 349 349 348 349 348 348 348 348 348 348 349 350 351 351 351 351 351 351 351 351 351 350 349 348 346 343 340 337 335 334 334 332 331 332 333 334 334 335 335 337 341 343 342 341 341 342 344 347 349 348 343
324 324 324 325 327 328 327 328 328 327 327 326 326 325 324 327 327 328 331 333 333 334 338 340 338 341 346 347 350 350 350 351 350 350 350 350 350 349 349 349 348 348 348 348 348 348 350 350 351 351 351 352 352 351 351 352 351 350 349 347 345 343 340 338 337 337 335 333 333 335 337 339 340 340 341 342 343 342 341 341 341 342 345 347 348 346
325 325 325 326 327 327 328 328 327 326 326 325 327 326 325 326 327 328 330 331 329 330 336 338 334 340 348 346 348 350 350 351 349 350 350 349 350 349 349 349 348 348 348 348 348 348 349 350 351 351 351 351 352 352 352 351 351 350 349 348 348 346 345 342 341 340 338 336 335 336 337 340 341 341 341 340 338 339 339 339 339 341 342 345 347 347
325 325 325 326 327 327 328 327 327 327 325 324 326 327 326 327 326 327 329 330 328 329 336 337 334 340 345 342 348 350 350 352 349 348 350 349 350 349 349 349 348 349 348 348 348 348 348 349 350 351 351 352 352 352 351 351 351 351 350 349 349 349 348 345 344 342 341 339 338 336 336 336 336 337 337 336 335 336 337 336 337 340 341 342 344 346
325 325 326 326 326 326 327 327 328 327 325 324 327 327 327 326 326 326 327 328 330 331 332 334 334 336 338 340 345 349 350 352 350 350 350 349 349 349 349 349 349 349 349 349 348 348 348 348 350 350 351 351 351 351 351 351 351 350 350 350 350 350 349 347 345 345 344 342 340 338 337 336 335 334 334 335 335 337 337 337 337 338 339 340 341 343
326 325 325 326 326 326 326 327 328 327 326 326 328 328 327 327 326 327 328 327 329 328 325 329 330 333 339 345 345 347 350 351 351 350 349 349 348 349 350 349 349 349 349 349 348 348 348 348 349 349 350 350 350 351 351 350 350 350 350 350 350 350 349 348 347 347 346 345 343 340 339 338 336 334 334 335 336 337 337 338 338 338 338 340 341 342
327 326 325 325 325 325 326 327 328 328 327 328 330 329 328 328 327 328 330 328 327 326 324 326 327 330 338 346 344 345 348 348 350 349 347 348 348 348 350 349 349 349 349 349 348 349 348 348 348 349 349 349 350 350 350 350 350 350 350 350 351 350 350 349 348 347 346 346 345 343 340 340 337 335 335 336 337 337 338 337 338 338 338 339 340 341
327 327 325 325 326 325 327 327 327 329 329 328 330 329 329 329 330 331 331 329 325 324 324 325 327 327 330 338 342 343 346 346 348 347 347 347 347 348 349 349 349 349 349 349 348 348 348 348 348 348 349 349 349 350 350 350 350 350 350 350 350 350 350 350 348 347 346 346 346 344 342 341 339 336 335 336 337 338 338 338 337 337 337 338 338 339
327 328 327 326 326 326 328 327 327 328 328 329 330 329 327 328 328 328 328 328 325 325 326 325 327 325 325 333 342 343 345 346 346 346 346 345 346 348 348 349 349 349 350 349 349 349 349 349 349 348 349 349 349 349 350 350 350 350 350 350 350 351 350 350 349 348 347 347 347 345 343 342 339 338 336 334 335 336 338 337 336 336 337 337 337 337
325 327 329 328 327 326 327 328 328 328 328 330 329 328 326 325 326 325 326 326 325 329 333 329 325 324 324 333 341 342 343 344 344 344 344 344 345 346 347 348 349 349 349 349 350 349 349 349 349 349 349 349 349 349 349 349 350 350 350 350 350 350 350 350 350 349 348 348 346 345 343 343 341 339 337 335 334 336 337 337 336 336 336 335 335 336
322 325 328 328 329 328 328 327 326 327 328 329 327 326 325 325 326 327 326 325 324 328 331 327 325 324 324 331 340 341 340 342 343 343 343 344 344 345 346 347 348 349 349 349 350 350 349 349 348 349 349 349 349 349 349 349 349 350 350 350 350 350 350 350 349 350 348 348 346 345 344 343 342 341 339 337 335 335 337 337 337 335 335 335 334 333
319 321 325 328 329 329 329 328 327 328 329 329 330 328 326 325 326 327 327 326 325 328 327 324 326 325 324 334 341 338 338 340 341 342 343 343 344 344 345 345 346 347 348 349 350 349 350 349 349 349 348 349 349 349 349 349 350 349 350 350 350 350 350 350 350 349 349 348 347 347 345 343 342 341 339 338 336 335 336 337 336 335 335 335 333 332
318 320 323 327 328 328 329 328 327 329 328 329 331 328 325 327 326 326 329 328 325 326 325 323 328 332 331 336 338 333 337 339 338 341 342 342 344 344 344 345 344 346 347 348 349 350 349 349 348 349 348 349 349 349 349 349 349 350 349 350 350 350 350 350 350 350 348 348 348 348 346 344 342 342 342 340 337 336 336 336 337 336 335 334 332 331
319 320 320 322 325 327 330 329 327 328 328 328 329 327 328 329 327 325 327 327 321 321 324 323 324 329 328 330 332 331 336 339 337 339 339 340 342 343 344 345 344 345 346 348 349 349 349 349 348 348 348 349 349 349 349 349 349 350 349 350 350 350 350 350 349 349 348 349 349 349 347 345 343 343 343 341 338 336 336 337 337 335 335 334 332 330
316 317 317 318 323 325 327 330 327 327 329 328 326 327 328 329 328 326 324 323 320 320 325 325 321 321 321 329 336 332 333 335 337 338 338 338 341 342 344 345 345 345 345 347 348 348 349 350 349 349 349 348 349 349 350 350 349 350 350 350 350 350 350 350 350 349 349 349 349 349 347 345 344 342 342 340 339 338 337 336 336 336 335 333 332 330
314 317 320 320 321 323 323 327 327 326 328 328 327 328 328 325 324 325 323 323 322 320 322 324 324 322 320 327 334 330 330 332 334 337 338 338 340 342 343 345 345 345 345 346 347 349 349 350 350 349 349 349 350 350 350 350 350 350 350 350 350 350 350 350 350 350 349 349 350 349 348 346 344 342 341 341 340 340 337 336 335 335 334 333 332 331
313 319 324 322 319 319 321 324 324 323 325 326 326 328 329 327 323 324 324 323 324 324 322 321 321 323 327 331 330 329 330 329 330 335 339 337 339 341 342 345 346 345 346 346 347 348 349 349 349 349 349 349 350 349 350 350 350 350 350 350 350 350 350 350 350 350 349 350 350 350 349 347 345 343 342 341 342 341 338 335 334 334 334 333 332 331
312 318 321 320 318 320 323 325 324 324 323 323 323 323 325 325 324 324 323 323 327 328 327 322 318 325 337 339 332 329 330 328 328 334 339 338 338 340 342 343 346 346 346 347 347 347 349 349 350 349 349 349 349 350 350 350 351 350 351 351 350 351 350 350 350 350 350 350 350 350 350 348 346 344 343 343 343 342 339 336 335 334 334 334 333 331
313 316 318 318 319 321 323 323 323 325 323 322 322 322 323 323 323 322 322 324 326 327 330 326 318 324 339 337 330 331 331 328 326 330 336 338 337 340 342 343 344 346 346 347 347 348 349 349 349 350 350 350 349 350 350 350 351 351 351 351 351 351 350 350 350 350 350 350 350 351 350 349 348 346 345 344 344 342 340 339 337 336 336 335 333 331
314 316 317 318 318 319 319 319 320 321 322 323 323 323 325 325 322 320 321 323 322 322 329 327 318 325 340 336 328 329 331 329 325 325 331 336 337 340 341 342 343 345 346 347 347 348 349 349 350 349 349 350 350 350 350 350 351 351 351 351 351 351 351 351 350 350 350 350 350 351 350 350 348 347 346 346 344 343 342 340 339 338 337 335 333 331
315 318 317 315 317 318 319 320 321 321 322 324 324 323 324 324 323 323 327 328 323 320 323 323 318 325 343 347 337 330 329 326 324 323 326 332 337 340 340 342 344 344 345 346 346 347 348 349 350 350 350 350 350 350 350 350 351 351 351 352 351 351 351 351 351 350 350 351 351 351 350 350 350 349 348 347 345 343 341 340 340 339 338 336 334 333
316 317 315 316 323 326 321 320 324 325 323 320 322 323 323 325 325 325 329 327 322 321 320 321 320 323 338 350 342 335 333 331 326 323 324 330 336 340 340 341 343 344 345 346 346 347 348 349 351 350 350 351 350 350 350 350 351 351 351 352 352 352 352 351 351 351 351 351 351 351 351 350 350 350 350 348 347 344 342 340 340 339 338 337 336 333
315 315 314 316 321 325 322 323 325 324 319 317 320 321 321 324 323 324 326 321 321 324 322 319 320 324 332 338 334 333 336 337 331 324 323 329 334 338 341 342 343 344 344 345 347 348 348 350 350 350 350 350 350 351 350 351 351 351 351 351 352 352 352 352 352 352 352 351 351 352 351 352 351 351 350 350 349 347 343 341 339 338 337 337 336 333
313 315 315 315 317 318 318 319 318 316 316 316 318 317 317 320 322 325 326 321 325 329 322 321 324 324 325 329 326 328 334 339 336 327 324 329 333 338 340 341 343 344 345 346 346 347 348 349 350 350 350 350 350 351 351 351 351 351 352 352 352 353 352 353 353 352 352 352 352 352 352 352 352 352 351 351 350 349 347 343 341 339 337 336 336 334
314 315 314 314 315 314 314 315 314 315 316 315 316 316 317 320 322 323 322 323 331 327 320 329 335 324 322 327 327 325 334 345 341 328 325 329 333 338 341 342 344 345 344 346 346 347 348 350 350 350 350 350 351 351 351 352 352 352 352 352 352 353 352 352 352 352 352 353 352 352 352 352 352 352 351 352 352 351 350 346 344 341 339 337 336 334
313 314 313 313 314 314 314 314 314 314 315 315 315 316 318 320 322 322 321 327 333 323 320 335 342 329 324 326 326 324 332 343 339 327 325 329 334 340 341 342 344 345 345 346 347 347 349 349 350 350 350 351 351 351 351 351 352 352 353 353 352 353 353 353 353 353 353 353 353 352 353 352 353 353 353 353 353 353 352 350 347 345 342 340 338 335
312 314 314 313 314 313 313 313 313 314 315 316 318 320 320 323 325 323 324 330 332 327 327 337 340 333 327 327 331 330 329 335 337 331 328 331 336 339 341 343 344 344 345 346 346 348 348 349 350 349 351 351 350 351 351 351 352 352 352 353 353 353 354 353 354 354 354 354 353 353 353 354 354 353 353 353 354 354 354 352 350 348 346 344 341 338
312 314 314 313 314 313 313 314 314 315 316 318 324 328 329 330 327 322 325 329 328 328 331 334 333 334 335 338 339 333 328 335 342 337 332 332 337 338 340 343 344 344 346 346 346 348 348 349 350 349 350 351 351 351 350 350 351 352 352 353 353 353 354 354 355 355 355 354 354 354 354 354 354 354 354 354 354 355 355 354 352 351 349 348 344 341
311 313 313 313 314 314 314 314 314 316 318 323 328 331 331 334 332 330 337 341 339 336 336 330 327 334 341 341 343 344 346 356 362 348 335 332 337 340 340 342 344 345 345 346 347 348 347 349 349 350 350 351 350 350 350 350 350 351 352 352 353 353 354 355 355 355 355 355 355 355 355 355 355 355 355 355 355 356 356 355 355 353 352 350 348 345
310 312 313 313 315 316 314 312 315 320 328 334 334 329 329 335 341 344 345 344 343 346 345 335 332 339 344 343 351 363 364 367 367 354 341 335 337 340 341 342 343 345 345 346 346 347 348 349 348 349 349 349 350 349 348 348 349 350 350 351 352 353 354 354 355 356 356 355 355 356 355 355 355 355 355 356 356 357 357 357 356 355 354 352 351 349
311 312 313 313 315 316 313 314 322 330 335 337 333 326 325 333 341 345 344 341 341 344 346 345 343 346 351 353 357 362 360 357 357 354 348 342 337 339 342 342 342 344 345 345 346 347 347 348 348 349 349 348 348 348 348 349 348 348 350 351 352 353 353 355 355 356 356 355 355 355 355 355 355 355 356 357 358 358 358 358 358 357 356 355 354 352
311 311 312 312 314 315 315 319 332 340 336 332 329 324 324 328 331 337 341 340 338 340 343 346 348 350 356 358 354 353 353 352 352 353 352 349 342 339 341 341 342 344 343 344 345 346 346 347 347 348 348 349 349 349 349 350 350 350 350 351 352 352 353 354 355 355 354 353 354 355 355 356 356 356 357 358 359 359 359 360 360 359 359 357 356 355
310 311 312 312 314 317 316 320 331 338 333 330 328 324 324 325 326 332 342 342 337 337 340 344 346 349 354 353 349 351 353 351 352 353 354 354 351 345 342 342 343 343 342 344 344 344 346 347 347 348 348 349 349 349 350 349 350 350 351 350 351 352 352 353 354 354 354 353 355 355 356 357 358 358 359 359 359 360 360 361 361 361 361 360 358 358
310 311 312 312 316 318 316 315 323 333 335 333 329 324 322 324 323 327 338 343 337 335 338 341 343 345 348 348 347 349 350 352 354 353 352 354 356 354 349 345 343 342 343 344 344 344 346 346 347 347 348 348 348 349 349 350 349 350 350 350 350 350 351 353 354 355 355 355 356 356 357 357 357 358 359 359 360 361 362 362 362 362 363 361 361 360
310 311 311 312 316 318 316 316 323 335 338 332 326 321 320 323 322 322 332 342 338 332 335 339 342 343 345 346 347 347 350 355 357 354 351 353 356 358 358 355 350 347 346 345 345 345 345 346 347 347 347 348 349 349 349 349 349 349 350 350 349 349 350 352 353 355 356 355 356 355 355 356 356 358 359 360 362 362 362 363 363 363 363 363 362 362
310 312 313 313 314 315 314 317 324 331 332 327 322 320 321 323 322 324 335 345 338 331 332 337 340 342 344 345 347 349 354 360 358 353 351 352 354 357 359 359 357 356 352 350 349 348 348 347 347 348 349 349 349 350 350 350 350 350 350 349 350 350 350 351 353 354 355 354 354 354 355 356 357 360 361 362 363 362 363 363 363 363 363 363 363 363
312 315 315 313 314 314 315 318 323 327 326 323 321 321 322 324 324 331 343 346 336 330 332 335 339 342 342 343 345 347 352 357 355 350 349 351 353 354 357 358 359 359 358 357 355 354 355 354 352 353 354 354 354 354 353 352 352 352 352 351 351 351 352 352 352 353 353 354 354 355 356 358 360 361 362 362 363 362 363 363 363 363 363 364 364 363
315 317 318 315 314 315 315 317 323 326 323 321 322 323 324 328 331 336 340 336 330 329 330 332 337 340 341 342 343 344 346 347 346 347 349 349 351 353 355 356 357 359 359 359 358 357 358 357 356 358 357 357 359 359 357 357 357 356 356 356 356 355 355 355 355 355 355 356 357 357 359 360 362 362 362 363 363 363 363 364 364 364 364 364 363 363
317 318 319 318 317 317 318 321 326 327 322 319 322 325 325 330 335 335 331 327 325 326 326 327 330 334 338 341 341 341 342 342 344 347 348 348 350 352 353 354 354 355 355 355 356 357 357 357 357 358 358 358 359 359 358 359 359 359 360 360 360 360 360 360 359 359 359 360 360 361 361 362 362 363 363 363 363 364 364 364 363 364 364 363 364 363
317 318 319 320 320 321 322 324 327 326 322 320 323 326 327 329 331 328 326 324 323 322 322 323 324 325 331 338 340 340 341 342 342 344 346 348 348 349 351 353 353 353 352 349 348 348 349 352 352 350 351 352 354 355 356 358 358 359 359 359 359 360 360 360 361 360 360 361 361 361 363 363 363 363 364 364 364 364 364 364 363 364 364 364 363 363
316 317 318 319 319 320 321 322 323 323 321 320 322 324 324 324 324 323 323 323 321 320 320 321 322 322 325 332 338 340 341 341 342 343 344 347 347 347 349 351 352 353 352 350 347 342 338 337 337 336 336 337 340 342 345 348 352 354 356 357 357 358 358 357 358 357 357 357 357 357 358 359 360 361 362 362 363 364 363 363 363 363 363 363 364 363
316 317 318 319 318 318 319 320 320 321 320 318 318 319 318 317 318 319 321 321 320 319 319 319 321 322 324 327 333 337 339 341 342 342 343 345 346 346 347 348 350 351 352 352 350 348 343 337 335 333 332 332 332 333 333 336 339 343 347 350 352 354 356 355 355 355 354 354 354 355 354 354 355 356 357 358 359 360 361 361 361 362 363 363 364 363
316 316 317 316 315 316 318 318 317 318 318 317 316 315 313 313 313 314 318 320 320 318 317 318 320 322 324 327 329 332 337 340 341 342 343 344 344 346 347 347 348 349 349 350 350 349 347 344 340 337 337 337 336 335 334 335 337 339 343 346 347 348 351 351 352 353 353 353 353 353 353 353 353 353 353 355 355 356 357 359 359 360 361 361 363 363
314 315 315 313 313 316 320 319 316 315 316 316 315 313 313 312 311 311 313 317 318 318 317 318 320 322 325 326 327 329 334 338 340 342 343 343 344 345 346 347 348 348 348 348 348 347 346 344 341 340 340 339 339 339 338 338 339 342 345 347 349 350 350 350 351 351 352 351 352 351 352 352 353 353 353 353 354 355 356 358 359 360 360 362 362 362
313 314 313 312 312 314 318 317 313 312 315 316 314 313 313 312 311 311 311 313 315 316 316 317 318 320 323 325 326 328 332 336 338 340 342 343 343 344 345 346 347 348 348 348 348 347 345 342 342 342 340 340 340 340 339 338 338 338 340 342 345 347 349 351 353 355 354 352 351 351 352 352 353 354 353 353 354 355 356 357 359 360 361 362 362 362
311 312 311 311 311 312 315 314 311 311 315 316 314 313 313 312 311 311 311 312 314 316 317 316 316 317 320 322 324 325 328 332 335 337 340 343 343 343 343 344 345 346 346 346 346 346 344 343 342 341 340 340 341 340 340 340 339 338 338 337 337 339 342 347 352 356 358 357 354 352 352 353 353 355 354 354 354 354 355 357 358 360 361 361 362 363
310 310 310 311 311 312 313 312 310 310 313 314 313 313 312 311 311 311 311 311 313 316 318 318 317 316 316 318 321 322 324 328 332 334 336 340 343 343 343 343 343 344 345 345 345 344 344 343 343 343 342 342 341 341 341 341 342 342 341 339 337 337 337 340 345 353 358 360 359 357 356 356 355 355 355 354 354 354 355 355 356 359 361 362 362 363
309 309 309 310 310 310 310 310 310 310 310 310 311 311 311 310 310 311 310 310 312 316 318 318 317 316 314 315 317 317 319 326 330 331 333 337 340 342 344 344 344 344 344 344 344 344 343 343 343 344 344 343 341 340 341 342 343 343 342 341 341 341 341 342 344 348 355 360 362 362 359 358 358 358 357 357 357 356 356 356 358 360 362 363 364 365
Wind_Speed
14 6 7 13 15 17 13 10 9 5 6 4 4 5 6 6 6 7 7 6 7 9 9 14 13 10 10 12 17 26 30 25 23 26 27 30 32 34 36 36 37 39 41 42 42 44 44 43 42 41 40 39 38 37 37 38 40 41 41 42 41 40 39 38 36 35 33 32 31 30 29 29 28 25 23 23 22 21 20 19 18 16 15 13 14 15
13 8 13 18 13 10 8 7 7 8 10 7 4 4 4 6 8 8 7 5 4 6 7 10 11 10 11 12 16 23 23 20 24 26 27 31 33 35 38 39 39 38 36 37 40 42 43 44 44 43 42 42 41 40 39 39 39 40 41 41 41 41 40 39 37 36 36 35 33 32 31 29 28 26 25 24 24 22 20 20 19 16 13 12 14 16
8 11 19 16 6 5 6 6 8 10 10 8 5 4 5 4 3 7 8 5 3 5 5 7 10 10 11 13 15 20 20 23 31 34 33 36 35 35 38 41 41 37 35 36 39 42 43 44 44 44 44 44 43 42 41 39 39 40 40 41 40 41 41 40 38 37 37 36 34 33 31 29 28 27 26 24 24 22 21 21 20 17 14 12 13 16
7 11 15 10 6 7 7 6 8 8 7 7 5 5 7 3 1 5 7 5 4 5 4 6 8 7 8 9 11 21 26 27 33 37 38 39 39 40 43 44 43 41 41 40 40 42 44 45 45 46 46 46 45 43 42 42 40 41 41 41 40 40 41 41 39 38 37 36 34 33 31 29 28 27 26 25 24 23 23 22 21 19 17 14 14 15
7 6 9 10 9 11 10 8 8 7 6 8 8 8 8 6 8 8 4 4 3 4 3 5 4 4 6 9 9 15 21 21 27 32 32 35 40 42 41 41 42 45 47 45 43 43 45 47 48 48 48 47 47 46 45 43 42 41 41 41 41 40 40 40 40 39 38 37 36 35 33 31 30 29 27 27 27 26 25 24 23 21 19 17 15 14
10 9 11 13 12 12 12 10 8 9 7 7 11 13 12 10 12 7 3 4 4 5 2 4 3 4 5 13 12 11 12 14 19 22 26 32 36 35 36 38 41 44 46 47 48 47 47 49 48 48 48 48 49 48 47 44 42 41 41 41 41 41 40 39 39 39 39 40 39 38 36 35 34 32 31 30 29 28 27 25 24 22 20 18 17 15
9 9 10 11 14 13 11 11 10 10 6 8 13 14 12 12 12 5 0 2 3 5 5 3 4 4 4 11 14 13 15 17 17 17 23 31 33 33 36 39 42 43 44 46 47 47 47 48 48 49 50 51 51 50 47 45 43 42 41 41 41 41 41 40 39 39 40 41 41 40 38 37 36 35 34 32 30 29 27 25 23 22 21 19 18 17
8 10 11 10 13 13 11 12 11 11 9 10 11 9 9 12 14 8 3 4 4 4 6 3 3 4 3 10 14 15 17 17 16 16 20 27 32 36 39 41 43 45 45 46 47 47 47 48 50 52 53 53 52 50 49 47 45 44 42 42 41 41 41 40 40 40 41 42 42 41 40 39 38 36 34 32 31 30 28 26 24 23 22 20 19 18
10 14 14 12 11 10 11 13 12 13 11 8 5 5 7 10 12 7 4 5 4 3 7 7 3 3 4 7 11 13 16 16 18 20 19 24 33 37 40 42 45 47 47 48 50 51 52 52 53 54 54 54 52 51 50 49 47 45 44 43 42 41 41 40 41 41 41 42 43 43 41 40 39 37 35 32 31 30 28 27 26 25 23 21 20 20
7 12 15 13 10 9 10 12 11 12 12 4 6 5 6 8 8 5 6 5 3 4 9 10 4 4 6 4 7 10 13 15 17 19 19 25 35 39 40 43 45 46 47 47 49 52 54 55 55 55 54 53 52 51 51 50 48 47 46 45 44 43 41 40 40 41 41 42 43 44 43 41 39 38 36 34 32 31 29 28 27 26 24 22 21 21
6 10 16 14 12 9 7 9 10 14 13 4 5 5 4 6 4 2 4 4 4 6 11 13 8 6 6 4 7 10 13 17 16 16 17 21 31 37 40 42 43 44 46 48 49 51 53 54 52 51 51 51 51 51 51 50 50 49 48 47 46 45 43 41 40 40 41 41 43 44 44 42 40 38 37 36 34 32 31 29 28 27 25 23 22 21
9 8 9 10 16 14 7 7 10 13 13 6 5 5 3 4 2 0 2 3 6 8 8 12 9 8 8 6 6 12 17 21 20 18 18 19 26 37 41 43 44 45 47 49 50 50 50 49 48 47 49 51 51 51 52 52 51 51 50 49 48 47 45 43 41 41 41 42 43 44 44 43 41 39 38 37 35 33 32 30 29 27 26 25 24 23
9 10 6 6 16 18 10 8 8 8 11 9 6 6 5 4 2 4 4 3 6 6 6 8 6 7 9 6 9 15 19 22 21 21 23 24 30 38 42 44 44 45 46 47 48 48 48 49 50 50 50 51 51 52 53 53 52 52 52 51 50 49 47 45 43 42 42 42 42 43 43 42 41 40 38 37 35 34 32 31 30 29 28 26 25 24
6 8 10 9 10 15 14 9 6 7 9 10 8 7 7 5 5 7 5 3 4 4 8 8 5 4 5 5 11 17 20 24 26 29 32 33 37 42 45 47 46 44 46 47 47 47 47 50 53 53 53 53 53 54 53 53 53 53 53 52 51 50 48 46 45 43 43 43 42 42 41 41 42 41 39 37 36 34 32 31 31 30 28 27 25 24
7 8 11 13 8 10 15 11 9 7 7 11 9 7 8 6 6 6 3 4 4 3 7 7 5 5 4 5 11 16 21 28 34 37 35 34 39 44 44 45 45 44 45 46 47 47 49 52 53 53 54 54 54 54 54 54 54 54 54 54 53 52 50 48 46 45 44 43 43 42 42 41 41 41 40 38 36 35 33 32 31 30 29 27 24 22
7 7 5 10 10 11 13 12 11 9 6 9 8 8 10 7 5 3 4 5 4 3 5 4 4 5 4 5 6 10 17 23 29 33 30 27 32 34 33 37 42 43 44 46 46 48 50 50 50 51 53 53 54 55 55 55 55 56 56 55 54 53 51 50 48 46 44 43 43 43 43 42 42 41 41 40 38 36 34 33 32 31 29 27 24 22
5 6 4 7 9 12 17 13 12 12 7 4 9 10 7 6 6 4 5 2 3 4 5 3 4 4 2 5 4 7 12 14 19 22 22 24 28 28 29 35 41 43 44 46 47 50 51 50 50 52 53 53 54 55 56 57 57 57 57 56 56 54 52 51 49 47 45 43 44 44 44 44 43 42 42 40 39 37 35 34 33 32 30 28 25 22
5 8 11 10 10 13 17 15 12 14 10 4 7 9 5 6 5 4 4 3 3 6 5 2 5 5 4 5 4 7 9 10 14 16 18 22 25 27 31 37 42 44 46 48 51 53 52 51 52 53 54 54 55 56 58 58 58 58 57 57 56 55 54 53 50 48 46 45 45 44 44 44 44 43 42 41 39 38 37 36 34 33 31 29 27 24
5 7 9 6 6 9 9 11 9 12 15 10 5 7 7 5 6 6 5 5 6 5 4 4 4 6 6 6 5 9 10 9 11 14 17 19 21 26 33 38 42 45 46 48 50 50 49 51 52 53 54 55 55 56 57 57 57 56 57 57 56 55 54 52 51 49 48 46 45 44 44 43 43 42 42 41 40 39 39 37 35 34 33 30 28 26
5 3 6 4 4 10 7 7 8 9 14 12 5 6 7 6 6 6 3 3 5 4 3 3 4 4 6 6 9 12 12 11 10 12 15 16 21 29 34 38 42 44 45 47 48 48 48 51 53 54 55 56 56 56 55 55 55 55 56 56 55 55 53 52 51 50 49 48 47 45 44 44 43 42 42 41 40 39 39 38 37 35 34 32 30 27
4 1 5 9 10 8 4 6 8 9 8 9 8 8 8 4 3 5 3 3 4 3 3 3 5 6 5 5 9 12 12 12 12 13 14 16 23 32 37 40 43 44 47 49 49 50 50 52 53 54 55 54 54 53 52 53 54 55 55 55 55 54 53 53 52 51 50 48 47 46 45 44 44 43 43 42 41 40 39 38 38 36 35 34 32 29
3 1 4 9 9 5 7 6 3 2 3 5 7 7 9 5 4 5 6 2 3 3 4 4 5 7 6 5 8 10 10 10 11 14 13 17 26 33 38 44 45 46 49 50 50 51 51 51 52 53 52 51 50 50 51 52 53 54 54 54 54 54 53 53 52 51 50 48 47 46 44 43 43 43 43 43 42 41 40 39 38 37 36 35 34 31
5 2 4 8 7 9 17 17 11 10 9 7 7 7 8 5 6 8 8 4 4 4 3 2 3 7 7 7 9 10 11 11 13 15 13 18 30 36 39 44 46 47 51 52 51 51 51 51 53 52 51 50 50 51 52 52 52 53 54 54 53 53 53 52 51 50 49 48 47 45 43 42 42 42 43 43 44 43 41 40 39 38 37 35 34 33
5 2 3 7 7 10 16 14 10 9 6 4 6 6 7 8 8 8 6 5 5 5 5 3 5 8 7 4 6 8 9 11 13 16 17 19 27 36 40 42 44 46 49 51 51 51 50 50 50 50 50 50 50 51 51 51 52 52 52 53 52 53 53 52 51 50 49 48 46 44 43 42 42 42 43 43 43 43 42 41 39 38 37 36 35 35
5 1 2 5 5 6 8 6 4 2 2 3 5 6 8 12 12 5 2 4 5 7 9 7 7 9 6 1 1 4 5 7 8 16 24 23 26 34 38 38 42 45 47 47 48 47 46 46 48 50 50 51 52 51 51 51 51 51 52 52 52 52 52 52 51 50 49 48 46 45 44 42 41 42 42 42 43 43 42 41 39 38 36 36 36 35
4 1 0 1 2 4 5 4 1 4 6 5 6 8 10 11 13 7 3 4 6 6 8 8 8 9 8 6 7 6 4 7 8 13 24 28 31 37 37 35 39 44 45 45 45 44 44 45 48 51 52 52 53 52 51 51 51 51 51 51 52 52 51 51 51 50 50 49 48 47 45 43 42 41 41 41 41 42 42 41 40 38 37 36 35 35
2 2 3 5 6 7 7 7 6 6 8 9 11 14 14 13 11 8 6 5 7 5 5 9 8 9 14 14 14 11 5 7 9 9 16 24 31 35 36 36 40 43 44 45 45 44 44 46 48 51 52 52 53 52 51 51 50 50 51 51 52 51 51 51 50 50 50 49 48 47 45 44 42 40 39 39 39 40 41 41 41 40 38 37 36 35
1 3 4 7 11 11 12 15 15 13 12 13 14 15 15 15 12 10 11 8 7 7 6 8 6 10 16 16 17 16 7 6 8 8 14 24 29 31 34 37 38 41 42 42 43 43 45 47 48 50 52 52 52 51 50 50 50 50 51 51 51 51 51 51 50 50 50 49 48 48 46 44 42 40 39 38 37 38 40 41 42 41 39 38 37 36
2 3 4 7 10 12 14 17 18 15 13 14 14 16 18 17 14 13 13 10 9 8 9 7 8 12 16 16 17 16 7 5 8 11 19 27 29 31 34 34 35 38 39 39 41 44 46 48 49 51 52 51 50 49 48 48 49 49 50 50 50 51 51 50 50 50 49 49 49 47 46 44 43 41 40 38 38 38 39 41 41 41 41 40 39 37
2 3 4 5 9 14 16 16 16 13 11 12 13 14 17 18 16 16 12 10 11 10 9 8 11 14 14 13 13 10 6 8 10 10 16 21 24 28 31 33 35 37 39 41 43 45 47 49 50 52 52 50 50 49 49 49 49 50 50 50 50 50 50 49 49 49 49 49 48 47 45 44 43 42 40 39 38 37 38 40 40 41 41 41 40 38
2 2 3 4 7 11 12 10 9 9 9 11 10 8 11 12 12 15 11 7 9 7 5 7 10 11 10 7 5 5 5 4 5 5 12 19 26 29 30 32 34 36 39 43 45 47 48 48 49 50 50 50 50 50 51 51 51 50 50 50 50 49 48 47 47 48 48 48 47 46 45 44 43 42 41 40 38 37 37 38 40 40 41 41 40 38
2 2 3 4 4 7 7 7 12 13 9 7 6 12 14 10 2 6 3 1 3 5 1 3 6 7 8 3 1 4 8 6 4 3 7 15 23 29 30 31 33 36 40 43 46 46 46 46 46 47 48 50 50 51 52 52 51 50 50 50 49 47 46 46 46 46 46 46 45 45 45 44 43 42 41 40 39 37 36 37 39 40 41 41 40 39
3 2 2 2 3 5 6 11 15 11 6 4 2 9 13 8 5 8 7 9 4 2 4 4 6 7 6 4 3 5 9 7 6 7 4 10 18 27 33 34 36 39 41 44 45 45 45 46 48 50 50 50 51 51 51 51 51 51 50 49 47 45 44 44 44 44 44 44 44 44 43 43 42 41 40 40 38 37 36 37 38 40 41 41 40 39
4 3 2 0 2 5 10 14 10 2 0 2 2 7 12 10 10 13 9 10 9 4 1 2 5 5 4 5 5 4 8 10 12 17 13 2 14 23 29 32 36 39 41 42 43 44 46 47 48 49 49 49 49 49 48 49 49 48 47 46 45 44 43 42 42 42 43 43 43 43 42 41 41 40 39 38 37 37 37 37 37 38 39 40 40 40
4 3 2 2 2 4 9 9 1 5 2 2 3 8 12 9 8 9 7 11 15 12 10 7 6 6 6 6 6 5 10 20 28 31 27 12 6 16 21 23 28 32 34 36 38 40 42 43 44 44 45 45 46 46 46 46 46 44 43 43 43 42 42 41 41 41 41 41 41 41 40 40 40 39 37 36 36 36 36 35 35 36 37 38 39 39
5 3 2 2 2 2 5 4 3 3 4 3 1 7 12 9 8 8 7 14 18 15 12 10 9 8 7 5 5 4 7 23 35 34 32 24 12 10 15 17 21 26 29 30 33 35 36 38 40 40 40 41 41 42 42 42 42 42 41 40 40 40 40 40 40 40 40 40 40 39 39 38 38 37 36 35 36 36 35 34 34 34 34 35 36 36
6 3 2 2 2 1 3 4 3 2 5 2 1 7 9 7 9 8 4 9 15 15 13 11 10 11 10 9 9 9 7 14 23 23 28 29 21 16 16 17 18 22 24 25 27 28 30 32 33 33 34 35 36 37 38 38 38 38 38 38 38 38 38 39 40 40 39 39 38 37 36 36 36 35 35 35 36 36 34 32 32 32 32 33 33 33
8 5 2 1 1 0 2 3 3 2 1 1 6 11 10 9 10 8 3 4 12 17 17 12 11 12 10 10 14 15 9 8 10 11 21 26 23 23 25 24 23 24 23 24 25 25 25 26 26 26 27 28 30 32 33 35 36 36 37 37 36 36 37 38 39 40 40 39 37 36 35 35 34 34 34 34 35 34 32 31 31 31 31 32 31 29
9 6 3 3 3 2 1 2 3 1 2 5 13 16 17 16 11 5 1 3 9 18 21 15 12 13 11 12 16 11 2 7 5 7 16 21 22 25 28 30 32 31 29 28 28 26 25 25 24 23 24 24 25 27 28 29 30 31 33 33 34 35 36 37 37 38 39 38 37 35 34 34 35 34 33 33 33 32 31 30 30 30 31 31 30 28
8 6 4 5 5 4 4 3 2 1 3 10 15 18 24 22 10 1 2 3 9 19 24 17 13 15 16 17 16 9 5 7 5 6 13 18 22 26 29 31 34 36 37 35 33 32 31 30 29 28 26 24 22 21 21 22 22 24 26 27 28 30 32 33 34 34 35 37 38 37 35 35 35 34 33 32 31 30 30 30 30 31 32 32 31 29
4 4 4 5 5 5 5 3 1 1 2 10 17 24 28 19 4 4 3 3 11 20 22 19 18 19 20 19 14 10 11 14 14 15 18 21 24 28 29 31 32 34 37 37 36 37 36 34 32 30 28 25 22 19 16 16 18 21 23 25 26 29 31 32 33 34 35 37 39 40 39 37 36 35 33 32 31 31 31 31 31 32 32 31 31 31
1 2 1 2 3 3 4 2 1 2 2 12 22 26 23 9 3 4 5 6 13 18 19 22 24 23 22 20 17 15 18 23 24 23 23 24 25 27 28 29 30 31 32 32 32 33 33 32 30 28 26 23 21 20 17 16 17 19 19 21 23 26 28 30 32 34 36 38 39 40 40 40 38 37 35 34 34 34 35 34 33 33 33 33 33 32
2 1 1 1 1 2 1 2 2 1 5 18 21 16 14 9 5 7 8 8 13 18 21 24 26 26 24 21 21 23 24 27 27 25 24 25 25 26 26 27 28 28 28 28 27 27 27 27 25 23 21 19 17 17 16 16 17 17 17 17 18 18 19 20 22 25 28 31 33 35 37 38 38 38 37 36 36 36 36 36 35 35 35 35 35 34
3 2 1 1 3 3 2 3 2 3 5 17 16 8 11 13 13 13 11 11 16 22 24 26 28 29 28 25 24 26 27 27 27 25 24 24 23 23 24 25 26 26 25 25 24 22 23 24 22 20 19 16 14 14 13 14 15 15 15 15 15 15 15 15 16 16 17 19 21 24 26 28 30 32 34 34 35 36 37 36 36 36 36 36 36 36
6 6 3 1 4 3 1 2 3 2 5 13 15 14 16 20 21 19 14 14 20 26 27 29 30 30 31 29 27 28 29 27 26 25 25 24 22 22 21 22 23 24 23 22 21 20 20 20 20 18 16 14 12 11 10 10 11 12 13 13 14 14 14 15 15 15 15 15 16 17 18 19 20 23 25 28 30 32 34 35 36 36 36 36 37 37
10 12 7 3 5 6 2 2 6 7 7 10 15 17 17 18 22 24 20 18 22 26 28 30 30 29 30 30 29 29 29 27 25 25 25 24 23 21 19 19 20 21 21 21 19 18 17 18 17 16 14 12 10 7 6 6 7 8 9 10 12 13 14 15 15 15 15 15 16 16 16 17 18 19 20 23 25 27 28 29 31 32 33 34 36 36
10 14 8 4 7 7 1 3 6 7 4 3 11 16 16 17 21 25 25 24 23 23 24 26 28 28 27 28 29 29 28 27 26 25 24 24 23 21 20 18 18 19 19 19 18 16 16 16 16 15 13 12 9 6 4 2 3 4 5 7 8 10 11 12 13 14 14 14 15 16 17 17 18 18 20 22 24 24 24 25 27 29 31 33 34 35
10 12 8 5 7 7 5 4 14 16 3 8 6 12 14 17 22 24 25 26 24 21 21 22 24 26 26 26 28 28 27 27 27 25 23 23 22 20 19 18 17 17 17 17 17 16 16 16 16 15 13 12 10 7 4 1 1 4 6 8 10 10 10 10 11 11 12 13 14 15 16 16 17 19 21 23 24 23 23 24 25 27 28 29 31 32
10 9 6 7 8 6 5 6 19 19 2 13 8 8 13 18 23 25 25 24 22 20 19 18 19 22 24 24 25 26 27 25 25 24 23 21 20 19 17 16 15 15 15 16 16 16 16 17 16 15 14 12 10 7 4 2 3 4 6 9 11 13 13 12 11 10 10 10 11 12 14 16 17 19 21 23 24 24 24 25 25 26 26 26 27 28
10 6 6 7 5 4 3 8 13 11 4 6 8 12 17 21 23 24 25 23 20 18 17 18 18 18 19 20 21 23 24 24 22 22 21 19 17 17 15 14 14 15 15 14 14 14 15 15 15 14 13 12 11 8 6 5 4 5 6 8 10 12 13 14 12 10 9 9 8 9 12 15 16 18 19 21 23 23 24 26 26 26 26 25 25 26
10 7 7 7 6 8 11 16 17 13 13 20 24 23 21 23 23 23 24 22 17 14 14 16 17 17 16 18 18 18 20 20 19 18 18 17 14 13 13 12 11 13 14 13 12 12 12 12 12 12 11 11 11 10 9 9 8 7 7 7 8 9 10 11 11 9 8 8 7 7 9 11 14 15 17 19 21 22 23 25 25 26 25 25 25 24
Wind_Direction
181 181 200 209 215 212 212 210 204 240 261 226 181 204 221 232 253 241 245 255 191 183 198 196 200 202 188 185 180 177 179 180 179 180 183 184 185 190 194 196 196 198 201 200 200 201 202 202 202 203 205 206 207 209 211 211 212 212 210 208 208 209 208 206 205 201 202 205 205 205 205 206 205 202 206 212 212 212 212 210 209 211 215 219 224 230
179 196 221 218 215 207 211 205 187 211 243 251 224 226 239 231 249 254 248 263 208 199 218 198 196 206 193 188 183 177 178 183 182 182 186 187 188 192 195 199 200 200 200 199 201 202 202 203 203 203 205 206 206 208 211 212 212 212 211 211 209 209 209 208 207 204 204 207 209 209 208 206 205 204 207 212 215 215 215 215 213 211 214 220 225 228
185 220 226 217 189 182 207 197 188 204 222 238 237 239 254 239 265 277 261 256 219 208 227 189 191 212 201 189 183 178 182 188 187 187 188 188 189 193 196 200 201 199 198 199 200 202 203 203 203 204 205 206 208 209 211 212 213 213 212 212 212 211 211 210 209 207 207 210 212 213 213 211 209 208 209 213 217 218 217 218 217 212 211 220 227 226
192 228 222 200 166 187 214 207 196 205 216 225 221 224 243 241 191 253 259 248 215 214 219 181 191 221 205 189 188 188 188 189 190 192 192 190 191 195 198 200 199 198 198 199 200 201 202 202 203 204 205 206 208 209 210 211 212 213 213 214 214 213 213 212 211 210 211 212 213 215 216 216 215 214 213 215 218 219 220 220 219 215 211 217 225 224
222 240 181 167 185 195 211 221 203 203 224 226 221 224 232 234 224 230 291 308 279 261 219 150 182 255 204 189 200 198 193 192 192 193 195 196 197 198 199 200 201 200 200 199 199 200 201 202 203 205 205 205 207 208 209 211 212 213 214 215 215 214 214 214 213 212 212 213 213 214 215 216 219 219 218 218 218 218 220 220 221 218 212 213 219 222
235 234 170 168 193 196 207 219 209 203 222 236 227 225 222 233 240 236 337 316 300 294 257 138 178 277 224 198 200 192 193 201 195 192 197 200 201 200 199 201 203 204 203 201 200 201 201 202 203 204 205 206 207 209 211 213 213 213 214 215 215 216 216 215 214 213 213 213 214 214 213 214 217 219 219 219 218 219 220 220 221 221 217 213 216 220
225 217 183 184 193 194 208 217 215 201 206 240 228 222 218 232 248 235 30 272 238 260 259 164 185 250 250 213 205 186 191 201 196 196 201 200 201 200 201 202 203 204 205 205 204 202 202 201 202 204 206 207 208 210 212 214 214 215 215 215 215 217 217 217 215 214 213 214 215 216 216 216 217 218 218 218 219 221 223 223 223 224 222 218 217 219
197 198 193 199 195 194 207 213 210 191 199 236 223 207 207 230 245 227 194 251 245 276 282 271 201 219 238 221 210 191 192 200 197 201 204 201 202 201 202 203 202 204 205 204 205 203 203 203 203 205 206 208 209 210 211 212 214 215 215 216 216 217 218 218 216 215 214 215 216 218 219 219 218 218 218 219 220 221 223 224 225 226 226 224 221 221
186 202 195 196 202 200 209 212 198 189 214 237 188 179 200 227 244 216 181 240 254 292 282 271 224 225 261 228 209 195 193 200 202 205 205 202 203 203 204 204 203 205 205 205 204 203 204 204 205 207 208 209 210 209 210 212 214 215 216 216 216 217 218 219 218 216 215 216 217 218 219 220 220 220 220 220 221 222 223 224 225 227 227 226 225 226
194 207 191 193 214 207 211 216 193 194 224 218 140 179 212 233 244 195 177 220 234 239 253 256 212 207 274 245 193 194 199 202 205 209 207 203 203 204 205 205 205 205 205 207 206 205 205 205 207 208 208 209 209 210 211 212 214 215 215 216 216 217 218 220 220 217 216 216 218 219 220 221 221 220 220 221 222 223 224 225 225 226 227 227 227 228
223 207 190 197 219 207 198 212 200 205 217 175 146 202 243 252 249 161 177 192 224 240 245 248 220 191 259 260 188 194 201 202 205 210 210 205 205 206 207 207 206 204 205 207 208 207 207 207 208 207 207 208 209 210 210 211 214 215 215 215 217 218 219 220 221 219 217 216 218 220 221 223 222 221 221 221 222 222 223 225 226 227 228 228 229 229
233 222 197 201 210 201 183 206 211 210 212 198 179 201 252 282 320 89 175 165 220 239 245 244 225 201 237 255 205 200 203 202 204 207 204 201 204 205 207 208 207 206 206 206 207 208 207 206 206 206 207 208 208 208 209 211 212 213 214 215 217 218 219 221 222 220 219 217 218 221 222 223 224 223 223 222 223 223 223 225 227 228 229 230 231 231
225 226 229 220 205 199 189 201 210 205 208 207 190 180 204 235 245 222 202 182 222 237 250 236 206 207 234 235 202 199 206 209 209 208 203 199 201 202 204 207 207 207 207 207 207 207 206 205 205 206 207 207 207 208 209 210 211 211 213 215 216 217 218 220 222 222 221 219 219 221 223 224 225 226 226 225 225 224 224 226 228 228 229 229 230 231
214 218 224 226 211 201 196 193 197 199 198 200 195 183 190 200 211 220 219 227 228 236 249 232 188 209 244 230 199 192 203 212 212 214 210 203 201 201 202 204 206 207 207 207 208 207 206 205 205 206 206 207 208 209 209 210 210 210 212 214 215 218 219 220 222 222 222 221 221 222 223 225 226 226 227 227 226 226 226 228 229 231 231 231 231 231
222 222 211 211 205 188 199 203 187 178 187 201 196 181 196 201 196 205 199 202 210 233 247 231 195 197 201 217 203 187 197 206 211 217 215 209 206 204 201 201 203 206 206 207 208 207 208 207 206 205 206 207 208 209 209 209 210 210 211 213 215 217 219 219 221 222 223 223 223 224 225 226 226 227 228 228 228 227 227 229 231 233 234 234 234 234
258 242 195 211 209 177 198 211 181 164 188 205 189 187 210 197 156 188 206 186 174 207 235 224 215 215 209 251 231 188 195 200 206 215 215 213 212 207 201 199 202 205 205 206 207 208 210 209 206 206 206 208 208 208 209 210 210 210 212 213 215 218 219 219 220 222 224 225 225 226 226 227 227 227 229 230 229 228 228 229 231 234 236 236 236 236
309 276 329 309 262 208 203 202 181 181 186 178 190 204 203 146 142 206 234 202 130 195 228 223 231 250 269 277 256 185 192 194 197 206 208 210 209 203 199 200 202 204 204 205 206 209 210 208 207 207 207 208 208 208 210 210 211 211 212 213 215 216 218 219 221 222 224 225 226 227 228 228 228 228 229 230 230 229 228 229 231 234 237 238 237 238
346 290 298 298 269 245 220 204 197 195 181 149 198 198 131 110 160 196 217 236 197 215 252 249 214 208 200 249 243 181 191 195 191 196 200 203 200 197 200 202 202 203 203 205 207 209 208 207 207 207 207 208 209 210 210 211 212 212 213 214 215 215 216 218 221 222 224 225 226 227 229 229 229 229 230 231 230 230 230 230 231 233 236 237 238 239
339 301 289 249 233 290 262 216 211 204 200 205 192 156 139 168 198 185 192 216 207 221 276 282 237 206 199 223 210 192 201 197 187 194 201 199 193 195 200 202 202 203 203 205 207 208 207 206 207 207 208 209 210 211 211 211 211 211 212 215 216 217 218 219 220 222 223 225 226 228 230 230 230 230 229 230 231 232 232 232 232 234 235 237 238 238
324 300 295 300 330 332 304 217 208 210 208 207 177 150 171 195 198 189 184 185 189 208 236 261 264 231 226 216 186 192 204 194 180 189 202 202 196 196 199 202 202 202 203 205 206 207 206 207 208 208 208 209 210 211 211 210 211 211 212 213 215 217 218 218 219 221 223 224 226 228 230 231 231 231 231 230 231 233 233 233 233 235 236 238 238 237
330 347 291 310 334 330 267 207 203 205 205 202 195 188 192 196 176 196 209 146 158 186 191 220 254 250 253 224 190 193 202 197 181 181 198 205 202 199 199 201 202 202 203 205 205 207 207 207 207 208 209 209 209 209 210 210 211 212 212 213 214 215 216 217 219 221 223 225 227 229 230 232 232 232 233 232 233 234 233 234 234 235 236 238 238 236
313 354 296 294 322 307 253 267 284 286 285 236 220 206 200 192 143 184 229 201 150 174 172 187 245 259 251 208 195 198 203 206 186 178 192 202 202 203 202 202 203 202 204 205 205 206 206 205 206 207 208 208 208 208 209 210 211 211 212 213 214 214 215 217 218 220 223 225 227 229 231 233 233 234 234 234 235 235 235 235 234 235 236 236 237 237
290 285 291 279 284 267 261 272 290 293 285 267 254 227 202 188 161 188 219 211 185 200 178 166 254 268 252 203 197 202 205 213 199 182 187 199 201 203 204 204 204 204 205 206 206 206 206 205 205 206 206 206 207 208 209 210 211 211 213 213 213 214 215 217 219 221 223 225 227 229 231 232 234 234 235 235 236 236 236 235 235 235 235 235 236 237
313 305 312 298 291 278 269 266 264 257 245 259 276 243 203 202 198 201 204 178 184 208 202 226 261 266 268 218 205 221 220 222 210 189 189 199 203 205 206 204 203 204 206 206 205 205 205 203 202 203 204 205 206 208 208 209 210 211 212 213 213 214 215 217 219 221 223 225 228 230 231 232 234 234 236 237 237 238 237 236 236 235 235 235 235 236
322 347 5 337 323 295 273 253 245 275 355 326 294 274 239 217 202 190 128 158 201 211 195 205 245 254 270 297 260 285 263 244 226 198 199 201 201 207 208 202 200 203 205 204 204 203 201 200 199 201 203 204 205 207 208 209 210 210 212 213 214 215 216 216 218 220 222 225 227 229 230 232 233 235 236 238 238 239 238 237 236 236 235 235 235 236
296 291 323 328 281 251 239 224 225 352 342 310 296 310 294 245 212 188 128 174 219 213 187 199 233 257 276 283 274 273 253 253 248 210 206 206 201 205 206 199 198 202 203 202 201 199 198 198 198 201 203 204 205 207 207 208 209 210 212 213 215 216 216 216 218 219 222 224 225 228 229 231 232 234 236 238 239 240 239 238 236 236 236 236 236 237
278 242 230 220 237 251 264 278 291 312 307 290 294 303 301 285 253 204 156 186 203 171 192 215 218 249 266 267 265 261 248 262 260 215 206 210 204 201 200 196 197 200 201 200 198 196 196 197 198 201 203 204 205 206 207 208 209 210 211 213 215 216 216 217 218 219 221 223 225 227 229 231 232 234 236 238 240 240 240 239 238 237 237 237 238 239
270 263 258 237 244 254 266 276 284 290 281 271 279 283 280 288 279 228 199 192 160 150 223 236 198 225 251 255 257 260 265 277 262 216 201 205 200 196 195 193 195 198 198 197 195 194 195 196 198 200 203 205 205 205 206 207 209 210 211 213 214 215 216 217 219 220 221 223 225 227 229 231 232 234 235 238 240 241 241 240 239 239 239 239 239 240
222 256 269 260 266 270 270 272 273 272 264 257 258 263 268 276 272 246 220 184 158 180 224 226 188 214 242 249 253 260 262 255 248 225 213 205 193 189 190 189 192 193 193 193 192 194 196 197 198 200 203 204 203 204 205 207 209 210 211 213 214 215 216 217 218 220 221 222 225 227 229 231 232 234 235 237 239 241 242 241 240 240 240 240 240 241
243 256 272 286 291 284 275 267 260 257 262 267 260 257 264 264 255 249 232 180 177 203 214 201 197 219 239 243 255 276 277 251 248 232 221 205 186 183 185 186 189 190 189 190 192 195 197 198 199 200 202 202 202 203 205 207 209 210 211 213 214 215 216 216 217 219 219 222 225 228 230 231 232 233 234 236 238 241 243 242 241 240 240 241 241 242
274 269 298 317 310 292 280 273 276 277 268 267 279 303 300 279 243 233 232 194 189 211 232 217 213 235 253 242 260 319 344 289 265 236 219 201 184 181 183 185 188 188 188 190 193 196 198 199 199 200 201 201 202 204 206 209 210 211 211 213 213 214 215 215 217 218 220 224 227 229 229 230 232 233 234 235 237 241 243 243 242 241 241 242 242 243
284 282 321 351 327 291 288 316 322 314 292 268 317 351 334 318 225 191 211 50 184 192 203 218 216 246 267 264 307 19 37 30 360 333 246 211 187 181 182 184 186 187 189 191 193 195 196 197 198 200 201 202 203 205 208 210 211 211 212 212 213 214 214 215 217 219 222 226 228 228 229 230 232 233 234 236 237 240 243 244 244 243 242 242 242 243
248 270 327 6 312 279 295 321 317 316 320 285 326 2 341 334 65 86 51 20 7 164 155 190 224 253 278 311 356 56 60 41 13 16 326 230 199 185 184 185 186 188 191 193 193 194 195 197 199 202 203 204 205 208 211 213 213 214 214 213 212 213 213 215 217 219 223 227 227 229 230 232 233 235 236 238 239 240 243 244 245 244 244 243 243 244
235 257 294 297 284 286 301 312 308 270 116 241 161 32 355 353 50 65 51 20 10 15 58 237 261 295 338 355 357 61 88 77 52 41 36 245 208 195 190 189 189 191 193 193 194 195 196 198 200 202 204 206 209 211 212 213 215 216 215 213 212 213 213 215 217 219 224 228 229 231 233 234 235 237 239 240 241 242 243 244 246 246 246 245 245 244
239 252 257 210 217 282 301 314 290 161 201 242 117 37 1 353 32 50 49 31 21 13 9 355 325 348 23 29 18 40 85 80 64 48 40 47 180 196 194 191 190 191 192 192 193 194 195 197 198 201 204 206 208 210 210 212 213 214 214 214 214 214 215 216 218 221 226 230 231 232 233 234 236 238 240 241 242 242 243 245 246 247 246 246 246 246
231 239 251 245 235 273 310 314 184 193 307 320 84 14 4 1 359 4 27 26 17 9 6 356 342 354 2 1 18 19 59 67 62 47 38 46 73 150 174 181 185 187 188 189 191 192 193 195 197 200 203 205 206 208 209 210 212 213 215 216 216 216 217 218 219 222 227 230 231 232 233 234 236 238 240 241 241 241 242 244 246 246 246 246 246 247
220 229 258 262 217 221 312 296 263 301 338 350 4 351 352 343 332 333 2 20 10 4 2 355 352 359 349 336 337 306 312 49 57 38 30 42 60 92 126 147 163 171 175 179 182 185 187 191 195 199 201 203 205 208 210 211 212 214 215 217 218 219 219 220 220 223 227 230 232 234 235 236 237 239 240 240 240 240 241 243 245 246 245 245 245 246
212 215 231 260 234 336 326 300 308 326 230 286 324 323 315 302 299 291 260 20 8 357 353 356 7 4 353 348 338 306 297 43 55 15 20 37 55 77 98 116 132 145 155 160 166 170 175 182 187 191 196 200 203 208 212 213 215 216 216 218 220 221 222 222 223 224 227 231 235 237 238 239 239 240 240 240 241 242 243 244 245 245 245 245 245 247
212 218 234 258 267 297 290 276 303 254 212 319 324 315 310 308 299 271 211 43 10 348 342 353 18 14 4 6 356 332 347 81 67 357 18 39 57 72 87 101 113 125 134 143 152 156 159 165 169 173 180 187 194 202 209 212 215 218 219 222 224 225 227 229 228 229 230 233 237 240 240 241 241 240 241 242 243 245 246 247 247 246 246 246 247 249
212 213 211 225 241 252 243 253 289 213 273 322 321 311 308 307 301 184 112 42 355 337 335 349 22 25 19 16 10 8 62 84 78 34 38 54 68 75 83 93 102 113 120 127 135 139 142 148 153 155 160 166 173 186 198 203 208 215 220 224 226 229 232 234 234 236 236 237 238 238 238 240 241 242 243 244 246 248 249 249 249 247 247 248 249 251
213 203 196 209 226 240 230 232 299 227 291 325 319 315 314 309 306 86 75 4 335 329 338 3 22 27 28 27 22 28 52 61 67 64 60 66 74 77 83 90 96 106 113 118 125 130 134 138 140 142 144 146 150 158 169 183 194 203 212 218 221 224 228 231 233 236 237 237 237 238 238 240 241 244 246 247 249 250 249 250 249 249 249 251 251 252
214 193 207 219 222 239 215 189 290 222 336 334 323 327 340 349 104 60 24 352 337 336 353 15 22 25 31 34 32 36 49 57 62 63 61 64 71 76 83 89 94 99 106 112 120 127 131 131 132 133 133 135 141 146 148 159 171 179 190 200 207 214 221 227 231 235 237 237 238 238 240 241 242 245 247 248 249 249 249 250 250 250 251 252 253 254
333 287 352 317 290 290 248 69 58 183 344 341 331 340 12 34 57 28 3 344 351 360 8 17 22 24 27 30 33 37 45 51 55 59 61 62 67 73 79 85 89 93 99 105 111 119 126 128 127 127 127 131 141 148 152 160 166 167 173 181 188 197 206 215 223 230 235 238 239 240 242 243 244 246 247 248 249 249 250 250 250 250 251 252 252 254
357 356 47 336 342 4 28 30 42 194 345 357 358 17 28 23 29 29 10 353 2 9 11 12 17 23 26 28 32 37 42 44 46 52 59 62 63 67 72 78 82 85 90 95 100 109 118 123 122 122 124 129 138 149 158 168 174 179 183 187 191 195 200 205 212 218 225 231 236 240 242 244 245 246 246 247 247 247 248 248 249 250 250 251 252 252
13 3 25 10 345 359 52 29 27 66 35 27 32 34 23 18 19 15 8 8 11 9 9 10 11 19 27 30 31 34 37 38 41 47 54 59 61 62 65 71 76 80 83 86 90 97 106 113 117 119 121 122 128 139 150 163 176 186 193 200 207 212 216 219 221 224 227 230 235 241 244 246 246 246 246 245 244 244 244 244 246 247 248 249 250 251
18 11 26 32 334 315 250 103 51 31 23 35 41 36 25 15 9 4 2 6 11 10 10 10 10 16 26 31 31 30 30 32 37 45 51 56 59 59 61 66 71 76 79 81 83 88 96 103 109 113 114 114 116 124 136 152 172 185 197 209 217 221 226 231 234 236 236 237 240 242 244 246 248 248 248 246 244 245 244 244 245 246 247 247 248 249
14 12 19 5 330 317 255 104 39 1 328 43 42 34 26 7 358 359 360 0 7 13 10 9 12 18 24 29 29 27 27 28 31 37 46 53 55 57 59 61 65 70 73 75 78 81 87 95 98 99 102 101 97 96 109 142 181 202 217 228 232 232 232 235 240 244 244 242 242 241 240 241 242 243 244 245 245 245 245 245 245 245 246 246 247 248
357 7 13 347 330 312 261 319 353 345 287 159 88 35 27 7 351 352 357 0 6 13 8 3 9 16 19 21 24 25 26 25 25 28 36 44 48 52 53 54 57 63 66 70 73 74 76 80 82 84 87 86 81 75 67 37 288 263 257 254 251 248 246 243 244 250 254 251 247 243 241 239 237 237 238 240 241 240 241 243 243 243 245 247 248 249
349 2 358 324 310 293 263 334 356 355 62 145 117 17 3 355 344 342 348 354 2 8 4 356 0 9 13 16 18 21 21 21 21 23 27 33 37 40 43 46 50 54 57 60 63 65 67 69 70 71 74 75 73 69 58 24 328 299 283 272 263 258 256 253 249 251 260 262 255 245 239 236 235 234 234 235 235 234 235 237 239 240 242 245 247 250
357 356 346 328 306 292 320 346 348 340 283 224 267 301 319 328 329 329 331 337 349 0 356 347 347 357 9 15 16 15 14 15 17 19 21 26 29 30 33 39 45 50 51 52 55 58 59 60 61 63 67 70 71 67 55 35 10 342 313 292 277 266 261 260 257 254 259 268 265 247 236 233 232 231 231 231 231 231 232 234 235 236 238 240 243 246
351 331 324 323 301 291 306 312 309 295 275 274 279 284 296 307 311 312 313 316 329 342 343 340 340 344 356 7 10 7 5 9 13 14 16 21 24 27 31 33 38 46 49 50 52 54 53 55 58 59 59 60 59 56 46 32 18 359 338 316 295 276 266 264 262 257 257 265 266 252 240 236 234 232 230 230 231 232 233 233 232 232 234 236 239 242